Weather History for Lordsburg, NM

Change the Weather History Date:

Thursday, February 14, 2013

  Actual Average Record
Temperature  
Mean Temperature 40 °F -  
Max Temperature 60 °F 63 °F 77 °F (2014)
Min Temperature 21 °F 29 °F 21 °F (2013)
Degree Days  
Heating Degree Days 24    
Moisture  
Dew Point 16 °F    
Average Humidity 38    
Maximum Humidity 68    
Minimum Humidity 15    
Precipitation  
Precipitation 0.00 in - - ()
Sea Level Pressure  
Sea Level Pressure 30.10 in    
Wind  
Wind Speed 4 mph (WNW)    
Max Wind Speed 15 mph    
Max Gust Speed 21 mph    
Visibility 10 miles    
Events      
Averages and records for this station are not official NWS values.
T = Trace of Precipitation, MM = Missing Value Source: NWS Daily Summary

Daily Weather History Graph

Daily Weather History Graph

Search for Another Location

Airport:

Trip Planner

Search our weather history database for the weather conditions in past years. The results will help you decide how hot, cold, wet, or windy it might be!

Date:

Astronomy

Feb. 14, 2013 Rise Set
Actual Time 6:58 AM MST 6:00 PM MST
Civil Twilight 6:32 AM MST 6:25 PM MST
Nautical Twilight 6:04 AM MST 6:54 PM MST
Astronomical Twilight 5:35 AM MST 7:22 PM MST
Moon 9:21 AM MST (2/14) 10:44 PM MST (2/14)
Length of Visible Light 11h 52m
Length of Day
11h 02m
Waxing Crescent, 22% of the Moon is Illuminated
Feb 14
Waxing Crescent
Feb 17
First Quarter
Feb 25
Full
Mar 4
Last Quarter
Mar 11
New

Hourly Weather History & Observations

Time (MST) Temp. Windchill Dew Point Humidity Pressure Visibility Wind Dir Wind Speed Gust Speed Precip Events Conditions
12:15 AM 33.8 °F 29.6 °F 12.2 °F 41% 30.11 in 10.0 mi West 4.6 mph - N/A   Clear
12:35 AM 32.0 °F 28.7 °F 12.2 °F 44% 30.11 in 10.0 mi NNW 3.5 mph - N/A   Clear
12:55 AM 33.8 °F - 12.2 °F 41% 30.11 in 10.0 mi Calm Calm - N/A   Clear
1:15 AM 32.0 °F 25.6 °F 12.2 °F 44% 30.10 in 10.0 mi West 6.9 mph - N/A   Clear
1:35 AM 32.0 °F 24.8 °F 12.2 °F 44% 30.10 in 10.0 mi WNW 8.1 mph - N/A   Clear
1:55 AM 32.0 °F 24.2 °F 14.0 °F 48% 30.10 in 10.0 mi WNW 9.2 mph - N/A   Clear
2:15 AM 33.8 °F 26.4 °F 14.0 °F 44% 30.10 in 10.0 mi West 9.2 mph - N/A   Clear
2:35 AM 32.0 °F - 12.2 °F 44% 30.10 in 10.0 mi Calm Calm - N/A   Clear
2:55 AM 28.4 °F - 12.2 °F 51% 30.10 in 10.0 mi Calm Calm - N/A   Clear
3:15 AM 26.6 °F 22.6 °F 12.2 °F 55% 30.09 in 10.0 mi SE 3.5 mph - N/A   Clear
3:35 AM 26.6 °F - 12.2 °F 55% 30.10 in 10.0 mi Calm Calm - N/A   Clear
3:55 AM 26.6 °F - 12.2 °F 55% 30.10 in 10.0 mi Calm Calm - N/A   Clear
4:15 AM 26.6 °F - 12.2 °F 55% 30.10 in 10.0 mi Calm Calm - N/A   Clear
4:35 AM 26.6 °F - 12.2 °F 55% 30.10 in 10.0 mi Calm Calm - N/A   Clear
4:55 AM 26.6 °F 22.6 °F 14.0 °F 59% 30.11 in 10.0 mi WNW 3.5 mph - N/A   Clear
5:15 AM 23.0 °F - 12.2 °F 63% 30.11 in 10.0 mi Calm Calm - N/A   Clear
5:35 AM 23.0 °F 18.4 °F 12.2 °F 63% 30.12 in 10.0 mi ESE 3.5 mph - N/A   Clear
5:55 AM 23.0 °F - 12.2 °F 63% 30.12 in 10.0 mi Calm Calm - N/A   Clear
6:15 AM 23.0 °F - 12.2 °F 63% 30.12 in 10.0 mi Calm Calm - N/A   Clear
6:35 AM 21.2 °F - 12.2 °F 68% 30.13 in 10.0 mi Calm Calm - N/A   Clear
6:55 AM 23.0 °F 18.4 °F 12.2 °F 63% 30.13 in 10.0 mi NW 3.5 mph - N/A   Clear
7:15 AM 24.8 °F 19.1 °F 14.0 °F 64% 30.13 in 10.0 mi WNW 4.6 mph - N/A   Clear
7:35 AM 30.2 °F 26.7 °F 15.8 °F 55% 30.14 in 10.0 mi North 3.5 mph - N/A   Clear
7:55 AM 30.2 °F - 14.0 °F 51% 30.14 in 10.0 mi Calm Calm - N/A   Clear
8:15 AM 32.0 °F - 17.6 °F 55% 30.14 in 10.0 mi Calm Calm - N/A   Clear
8:35 AM 41.0 °F - 19.4 °F 42% 30.14 in 10.0 mi Calm Calm - N/A   Clear
8:55 AM 42.8 °F - 19.4 °F 39% 30.13 in 10.0 mi Calm Calm - N/A   Clear
9:15 AM 44.6 °F - 19.4 °F 37% 30.13 in 10.0 mi Calm Calm - N/A   Clear
9:35 AM 44.6 °F - 21.2 °F 39% 30.13 in 10.0 mi North - - N/A   Clear
9:55 AM 44.6 °F - 21.2 °F 39% 30.13 in 10.0 mi Calm Calm - N/A   Clear
10:15 AM 46.4 °F - 19.4 °F 34% 30.13 in 10.0 mi Calm Calm - N/A   Clear
10:35 AM 50.0 °F - 21.2 °F 32% 30.13 in 10.0 mi WNW 3.5 mph - N/A   Clear
10:55 AM 50.0 °F - 19.4 °F 30% 30.13 in 10.0 mi NW 3.5 mph - N/A   Clear
11:15 AM 51.8 °F - 19.4 °F 28% 30.12 in 10.0 mi WNW 5.8 mph - N/A   Clear
11:35 AM 53.6 °F - 19.4 °F 26% 30.12 in 10.0 mi West 4.6 mph - N/A   Clear
11:55 AM 53.6 °F - 19.4 °F 26% 30.12 in 10.0 mi NW 5.8 mph - N/A   Clear
12:15 PM 55.4 °F - 19.4 °F 25% 30.11 in 10.0 mi WNW 4.6 mph - N/A   Clear
12:35 PM 55.4 °F - 19.4 °F 25% 30.10 in 10.0 mi WNW 5.8 mph - N/A   Clear
12:55 PM 55.4 °F - 19.4 °F 25% 30.09 in 10.0 mi West 4.6 mph - N/A   Clear
1:15 PM 57.2 °F - 19.4 °F 23% 30.09 in 10.0 mi WNW 8.1 mph - N/A   Clear
1:35 PM 59.0 °F - 17.6 °F 20% 30.10 in 10.0 mi West 10.4 mph 16.1 mph N/A   Clear
1:55 PM 59.0 °F - 17.6 °F 20% 30.08 in 10.0 mi West 9.2 mph 19.6 mph N/A   Clear
2:15 PM 60.8 °F - 17.6 °F 19% 30.06 in 10.0 mi West 10.4 mph 19.6 mph N/A   Clear
2:35 PM 60.8 °F - 17.6 °F 19% 30.04 in 10.0 mi WNW 11.5 mph 16.1 mph N/A   Clear
2:55 PM 60.8 °F - 17.6 °F 19% 30.04 in 10.0 mi NW 13.8 mph - N/A   Clear
3:15 PM 60.8 °F - 17.6 °F 19% 30.04 in 10.0 mi West 11.5 mph 17.3 mph N/A   Clear
3:35 PM 60.8 °F - 14.0 °F 16% 30.04 in 10.0 mi WNW 13.8 mph 19.6 mph N/A   Clear
3:55 PM 60.8 °F - 12.2 °F 15% 30.04 in 10.0 mi NW 13.8 mph 18.4 mph N/A   Clear
4:15 PM 60.8 °F - 17.6 °F 19% 30.04 in 10.0 mi NW 12.7 mph 20.7 mph N/A   Clear
4:35 PM 60.8 °F - 15.8 °F 17% 30.04 in 10.0 mi NW 15.0 mph 19.6 mph N/A   Clear
4:55 PM 59.0 °F - 14.0 °F 17% 30.04 in 10.0 mi NW 11.5 mph - N/A   Clear
5:15 PM 59.0 °F - 14.0 °F 17% 30.04 in 10.0 mi WNW 13.8 mph 17.3 mph N/A   Clear
5:35 PM 57.2 °F - 14.0 °F 18% 30.04 in 10.0 mi WNW 10.4 mph - N/A   Clear
5:55 PM 55.4 °F - 15.8 °F 21% 30.05 in 10.0 mi WNW 8.1 mph - N/A   Clear
6:15 PM 51.8 °F - 14.0 °F 22% 30.06 in 10.0 mi WNW 8.1 mph - N/A   Clear
6:35 PM 51.8 °F - 15.8 °F 24% 30.06 in 10.0 mi WNW 8.1 mph - N/A   Clear
6:55 PM 50.0 °F - 15.8 °F 26% 30.07 in 10.0 mi NW 5.8 mph - N/A   Clear
7:15 PM 44.6 °F 40.7 °F 15.8 °F 31% 30.06 in 10.0 mi West 6.9 mph - N/A   Clear
7:35 PM 42.8 °F 38.0 °F 15.8 °F 34% 30.06 in 10.0 mi WNW 8.1 mph - N/A   Clear
7:55 PM 42.8 °F 41.1 °F 17.6 °F 36% 30.07 in 10.0 mi NW 3.5 mph - N/A   Clear
8:15 PM 41.0 °F 36.4 °F 15.8 °F 36% 30.08 in 10.0 mi WNW 6.9 mph - N/A   Clear
8:35 PM 41.0 °F 37.1 °F 17.6 °F 39% 30.08 in 10.0 mi NW 5.8 mph - N/A   Clear
8:55 PM 39.2 °F - 17.6 °F 42% 30.10 in 10.0 mi Calm Calm - N/A   Clear
9:15 PM 39.2 °F - 17.6 °F 42% 30.11 in 10.0 mi Calm Calm - N/A   Clear
9:35 PM 42.8 °F - 19.4 °F 39% 30.11 in 10.0 mi Calm Calm - N/A   Clear
9:55 PM 41.0 °F - 19.4 °F 42% 30.12 in 10.0 mi Calm Calm - N/A   Clear
10:15 PM 41.0 °F 39.0 °F 17.6 °F 39% 30.13 in 10.0 mi West 3.5 mph - N/A   Clear
10:35 PM 39.2 °F - 19.4 °F 45% 30.13 in 10.0 mi Calm Calm - N/A   Clear
10:55 PM 37.4 °F 32.8 °F 19.4 °F 48% 30.14 in 10.0 mi West 5.8 mph - N/A   Clear
11:15 PM 37.4 °F 33.8 °F 19.4 °F 48% 30.14 in 10.0 mi SSW 4.6 mph - N/A   Clear
11:35 PM 37.4 °F - 19.4 °F 48% 30.16 in 10.0 mi Calm Calm - N/A   Clear
11:55 PM 35.6 °F 31.7 °F 19.4 °F 52% 30.16 in 10.0 mi West 4.6 mph - N/A   Clear